Hourly Data Report for November 27, 2004

SHERBROOKE A
QUEBEC

45°26'00.000" N
71°41'00.000" W
241.40 m
7028124
71610
YSC

Download Data

Hourly Data (November 2004)
Hourly Data Report for November 27, 2004
TIME
LST
Temp Definition
°C
Dew Point Definition
°C
Rel Hum Definition
%
Precip. Amount Definition
mm

Wind Dir Definition
10's deg

Wind Spd Definition
km/h
Visibility Definition
km
Stn Press Definition
kPa
Hmdx Definition


Wind Chill Definition


Weather Definition


00:00 -8.6 -11.9 77     0 15.0 99.30      
01:00 -8.7 -11.5 80   21 6 15.0 99.41   -12  
02:00 -9.0 -12.0 79   24 4 15.0 99.50   -11  
03:00 -10.9 -13.0 84   12 4 15.0 99.57   -13  
04:00 -11.2 -13.3 84     0 15.0 99.65      
05:00 -11.2 -13.2 85   10 4 15.0 99.71   -14  
06:00 -11.1 -13.4 83   9 6 15.0 99.78   -15  
07:00 -11.1 -13.4 83   9 7 15.0 99.84   -15  
08:00 -9.6 -12.1 82   9 9 24.1 99.86   -14 Clear
09:00 -7.0 -10.6 75   9 7 24.1 99.91   -11 Clear
10:00 -3.9 -8.6 70   8 9 24.1 99.94   -8 Clear
11:00 -1.3 -7.0 65   10 9 24.1 99.88   -5 Clear
12:00 1.7 -5.5 59   15 7 24.1 99.80     Mainly Clear
13:00 2.5 -4.7 59   12 9 24.1 99.73     Mainly Clear
14:00 2.6 -3.5 64   12 11 24.1 99.71     Cloudy
15:00 2.7 -3.6 63   10 9 24.1 99.68     Cloudy
16:00 2.4 -3.4 65   11 11 24.1 99.67     Cloudy
17:00 2.4 -3.4 65   12 9 24.1 99.70     Cloudy
18:00 2.1 -3.6 66   13 7 15.0 99.74      
19:00 2.0 -3.8 65   11 11 15.0 99.70      
20:00 2.2 -3.8 64   13 20 15.0 99.64      
21:00 2.4 -3.5 65   14 19 15.0 99.62      
22:00 2.5 -3.1 67   14 19 15.0 99.57      
23:00 2.7 -2.7 68   15 13 15.0 99.55      

Notes on Data Quality.

Legend

  • E = Estimated
  • M = Missing
  • NA = Not Available*
  • [empty] = Indicates an unobserved value
Date modified: